[[{"header":{"parameterUnit":"m.s-1","parameterCategory":1,"la1":30.2991,"la2":30.254,"lo1":-89.0895,"lo2":-89.0444,"dy":0.0017,"dx":0.0017,"nx":28,"ny":28,"refTime":"2025-09-17T03:00:00:Z","depth":0,"parameterNumber":2,"parameterNumberName":"U-component_of_WINDS"},"data":[0,0,0,0,0,0,0,0,0,0,0,0,0,0,0,0,0,0,0,0,0,0,0,0,0,0,0,0,0,0,0,0,0,0,0,0,0,0,0,0,0,0,0,0,0,0,0,0,0,0,0,0,0,0,0,0,0,0,1.3159,1.3159,0,1.3142,1.3142,1.3142,1.3119,1.3118,1.3118,1.3117,1.3099,1.3099,1.3099,0,0,0,0,0,0,0,0,0,0,0,0,0,1.3169,1.3169,1.3159,1.3159,1.3159,1.3142,1.3142,1.3142,1.3119,1.3118,1.3118,1.3117,1.3099,1.3099,1.3099,0,0,0,0,0,0,0,0,0,0,0,0,0,1.316,1.3169,1.3159,1.3145,1.3144,1.3142,1.3142,1.3142,1.3119,1.3118,1.3118,1.3117,1.3099,1.3099,1.3099,1.3109,0,0,1.3098,1.3098,0,0,0,0,0,0,0,0,1.3161,1.316,1.3148,1.3146,1.3145,1.3132,1.3139,1.3131,1.3119,1.3128,1.3117,1.3117,1.311,1.3109,1.3107,1.3108,1.3107,1.3098,1.3098,1.3098,1.3098,0,0,0,0,0,0,0,1.3161,1.316,1.3152,1.3147,1.3146,1.3139,1.3137,1.3137,1.3123,1.3127,1.3126,1.3124,1.3109,1.3107,1.3106,1.3107,1.3098,1.3098,1.3098,1.3098,1.3112,1.3112,0,0,0,0,0,0,1.3164,1.3161,1.3153,1.3152,1.3151,1.3139,1.3137,1.3137,1.3123,1.312,1.3125,1.3123,1.3108,1.3107,1.3106,1.3115,1.3098,1.3098,1.3097,1.3111,1.3112,1.3113,0,0,0,0,0,0,1.3165,1.3164,1.3154,1.3156,1.3154,1.314,1.3139,1.3137,1.3134,1.312,1.3118,1.3125,1.3107,1.3106,1.3108,1.3114,1.3097,1.3097,1.3111,1.3112,1.3112,1.3134,0,0,0,0,0,0,1.3165,1.3164,1.3169,1.3156,1.3154,1.3157,1.314,1.3137,1.3134,1.3132,1.312,1.3118,1.3107,1.3108,1.3107,1.3113,1.3097,1.311,1.3111,1.3112,1.3132,1.3135,1.3138,0,0,0,0,0,1.3165,1.3176,1.3169,1.3168,1.3159,1.3157,1.3156,1.3143,1.3135,1.3139,1.3129,1.3118,1.3113,1.3108,1.3107,1.3113,1.311,1.3111,1.3112,1.3131,1.3135,1.3137,0,0,0,0,0,0,1.3189,1.3174,1.3166,1.3173,1.3166,1.3153,1.3158,1.3148,1.3143,1.3141,1.3126,1.3123,1.3126,1.312,1.3115,1.3121,1.311,1.3111,1.3125,1.3128,1.313,1.3131,1.3097,0,0,0,0,0,1.3195,1.3195,1.3182,1.3189,1.3186,1.3172,1.3171,1.3162,1.3154,1.3151,1.3142,1.3135,1.3131,1.3129,1.3126,1.3132,1.3128,1.3135,1.3138,1.314,1.314,1.3141,1.3143,1.3116,1.3116,1.3116,0,0,1.3208,1.3199,1.32,1.3193,1.3187,1.3186,1.317,1.3171,1.3169,1.3151,1.3151,1.3144,1.3135,1.3138,1.3139,1.3133,1.3147,1.3141,1.3143,1.3142,1.3142,1.3145,1.3147,1.3117,1.3117,1.3117,0,0,1.3229,1.3224,1.3228,1.3222,1.3213,1.3203,1.3204,1.3192,1.3187,1.3187,1.3172,1.317,1.3166,1.3159,1.3155,1.3172,1.3161,1.3171,1.3184,1.3184,1.3186,1.3188,1.3192,1.3194,1.3172,1.3172,1.3172,0,1.3246,1.3245,1.3231,1.3232,1.3228,1.3212,1.3215,1.3209,1.3199,1.3197,1.319,1.3182,1.3175,1.3175,1.3179,1.3177,1.3176,1.3172,1.3187,1.3189,1.319,1.3194,1.3196,1.3173,1.3173,1.3173,1.3173,0,1.3264,1.3263,1.3268,1.3258,1.3255,1.3257,1.3242,1.3241,1.3232,1.3222,1.3222,1.3212,1.3205,1.3205,1.3196,1.3203,1.3199,1.319,1.3179,1.3194,1.3197,1.3199,1.3175,1.3174,1.3174,1.3174,0,0,1.3301,1.3282,1.3284,1.3278,1.3266,1.3265,1.3265,1.3258,1.3256,1.3249,1.3248,1.3243,1.3234,1.323,1.322,1.322,1.3232,1.3211,1.3211,1.3214,1.3237,1.3242,1.3244,1.3225,1.3225,1.3225,1.3237,0,1.3319,1.3319,1.3306,1.3309,1.3306,1.329,1.329,1.3282,1.3273,1.3269,1.3259,1.3255,1.3245,1.3241,1.3241,1.3231,1.3236,1.323,1.3222,1.3222,1.3224,1.3246,1.3253,1.3264,1.3238,1.3238,1.3239,0,1.334,1.3334,1.3336,1.3322,1.332,1.3321,1.3312,1.3309,1.3299,1.3292,1.3286,1.3275,1.3272,1.3262,1.3258,1.3254,1.325,1.3244,1.3244,1.3242,1.323,1.3243,1.3268,1.3269,1.3241,1.3241,1.324,0,1.3364,1.3356,1.3356,1.3352,1.3336,1.3336,1.3329,1.3318,1.3314,1.3307,1.3303,1.3296,1.3291,1.3285,1.3271,1.3265,1.3268,1.3257,1.3261,1.3261,1.3262,1.3262,1.3284,1.3261,1.3261,1.3261,1.3261,0,1.3384,1.3386,1.3366,1.3366,1.3367,1.3352,1.3353,1.3344,1.3334,1.3331,1.3317,1.3314,1.3297,1.3292,1.3281,1.3278,1.3276,1.327,1.3267,1.327,1.3271,1.3267,1.3265,1.3262,1.3262,1.3262,1.3262,0,1.3411,1.3398,1.3396,1.3381,1.3377,1.3378,1.3364,1.3363,1.3353,1.3349,1.3347,1.3331,1.3324,1.331,1.3299,1.3292,1.3291,1.3286,1.3294,1.3292,1.3296,1.3296,1.3316,1.3317,1.3295,1.3295,1.3296,0,1.3424,1.3425,1.3409,1.3406,1.34,1.3395,1.339,1.3375,1.3371,1.3358,1.3358,1.335,1.3342,1.3332,1.3319,1.331,1.3304,1.3312,1.3303,1.3306,1.3302,1.3302,1.3301,1.3314,1.3314,1.3314,1.3315,0,1.3448,1.3441,1.3436,1.3427,1.3422,1.3414,1.3406,1.3404,1.3387,1.3383,1.3375,1.3369,1.3358,1.335,1.3339,1.3331,1.3319,1.3318,1.3318,1.3321,1.3325,1.3321,1.3298,1.3317,1.3317,1.3317,1.3317,1.3316,1.3467,1.3466,1.3454,1.3448,1.344,1.3432,1.3429,1.3419,1.3412,1.3402,1.3393,1.3386,1.3374,1.3358,1.3351,1.3344,1.3339,1.334,1.334,1.334,1.334,1.3327,1.3342,1.3342,1.3342,1.3342,1.3342,0,1.3489,1.348,1.3475,1.3463,1.3457,1.3448,1.3437,1.3433,1.3427,1.3417,1.341,1.34,1.3392,1.3378,1.3368,1.3365,1.3359,1.3363,1.3362,1.336,1.3347,1.3347,1.3367,1.3367,1.3367,1.3367,1.3367,1.3367,1.3499,1.3497,1.3488,1.3481,1.3472,1.3465,1.346,1.3452,1.3444,1.3434,1.3427,1.3418,1.3405,1.3394,1.3385,1.3381,1.3378,1.3382,1.3376,1.3364,1.3361,1.3359,1.3359,1.3382,1.3382,1.339,1.339,1.339]},{"header":{"parameterUnit":"m.s-1","parameterCategory":1,"la1":30.2991,"la2":30.254,"lo1":-89.0895,"lo2":-89.0444,"dy":0.0017,"dx":0.0017,"nx":28,"ny":28,"refTime":"2025-09-17T03:00:00:Z","depth":0,"parameterNumber":3,"parameterNumberName":"V-component_of_WINDS"},"data":[0,0,0,0,0,0,0,0,0,0,0,0,0,0,0,0,0,0,0,0,0,0,0,0,0,0,0,0,0,0,0,0,0,0,0,0,0,0,0,0,0,0,0,0,0,0,0,0,0,0,0,0,0,0,0,0,0,0,2.3405,2.3405,0,2.3371,2.337,2.337,2.3324,2.3323,2.3323,2.3322,2.3286,2.3286,2.3286,0,0,0,0,0,0,0,0,0,0,0,0,0,2.3431,2.3431,2.3405,2.3405,2.3404,2.3371,2.337,2.337,2.3324,2.3323,2.3322,2.3322,2.3286,2.3286,2.3286,0,0,0,0,0,0,0,0,0,0,0,0,0,2.3411,2.3431,2.3405,2.3378,2.3375,2.3371,2.337,2.337,2.3324,2.3323,2.3322,2.3321,2.3286,2.3286,2.3286,2.3306,0,0,2.3285,2.3284,0,0,0,0,0,0,0,0,2.3412,2.341,2.3382,2.338,2.3376,2.3351,2.3366,2.3348,2.3325,2.3344,2.3322,2.3321,2.3309,2.3306,2.3302,2.3304,2.3303,2.3285,2.3284,2.3284,2.3284,0,0,0,0,0,0,0,2.3414,2.3411,2.3392,2.3382,2.3378,2.3367,2.3363,2.3363,2.3333,2.3342,2.3338,2.3335,2.3307,2.3303,2.3301,2.3302,2.3285,2.3284,2.3284,2.3284,2.3316,2.3317,0,0,0,0,0,0,2.3419,2.3413,2.3393,2.339,2.3392,2.3367,2.3362,2.336,2.3333,2.3327,2.3336,2.3333,2.3304,2.3302,2.33,2.3319,2.3284,2.3284,2.3284,2.3315,2.3316,2.3317,0,0,0,0,0,0,2.342,2.3418,2.3394,2.3401,2.3397,2.3368,2.3365,2.336,2.3356,2.3328,2.3323,2.3337,2.3303,2.33,2.3304,2.3317,2.3284,2.3283,2.3314,2.3315,2.3317,2.336,0,0,0,0,0,0,2.3421,2.3418,2.3426,2.3401,2.3397,2.3399,2.3366,2.336,2.3355,2.3351,2.3328,2.3323,2.3302,2.3305,2.3304,2.3316,2.3283,2.3312,2.3314,2.3316,2.3357,2.3363,2.3368,0,0,0,0,0,2.3422,2.344,2.3427,2.3424,2.3405,2.34,2.3398,2.3373,2.3357,2.3363,2.3346,2.3324,2.3317,2.3306,2.3304,2.3317,2.3311,2.3314,2.3316,2.3355,2.3362,2.3367,0,0,0,0,0,0,2.3467,2.3436,2.3421,2.3432,2.3419,2.3393,2.3401,2.3381,2.3373,2.3369,2.3339,2.3334,2.3341,2.333,2.3318,2.3333,2.3311,2.3313,2.334,2.3347,2.3352,2.3354,2.3283,0,0,0,0,0,2.3479,2.3477,2.345,2.3462,2.3457,2.343,2.3427,2.3409,2.3394,2.3389,2.3371,2.3358,2.3352,2.3349,2.3343,2.3356,2.3349,2.3363,2.3369,2.3373,2.3375,2.3378,2.3384,2.3325,2.3325,2.3325,0,0,2.3502,2.3485,2.3486,2.3471,2.3459,2.3457,2.3426,2.3426,2.3424,2.3389,2.339,2.3377,2.336,2.3368,2.3371,2.3359,2.339,2.3376,2.338,2.3379,2.3381,2.3387,2.3392,2.3327,2.3327,2.3327,0,0,2.3543,2.3531,2.3538,2.3527,2.3509,2.3491,2.3493,2.3469,2.3458,2.346,2.3433,2.343,2.3422,2.341,2.3403,2.3439,2.3418,2.3438,2.3464,2.3468,2.3473,2.3477,2.3487,2.3491,2.344,2.344,2.344,0,2.3574,2.3571,2.3545,2.3546,2.3539,2.3507,2.3513,2.3504,2.3485,2.3481,2.3468,2.3455,2.3441,2.3445,2.3453,2.345,2.3449,2.3439,2.3474,2.3478,2.3481,2.3491,2.3495,2.3442,2.3442,2.3442,2.3442,0,2.3608,2.3607,2.3615,2.3596,2.3591,2.3595,2.3569,2.3567,2.3549,2.3532,2.3533,2.3516,2.3504,2.3504,2.3488,2.3505,2.3497,2.348,2.3456,2.349,2.3498,2.3501,2.3446,2.3445,2.3444,2.3444,0,0,2.3676,2.3643,2.3646,2.3636,2.3614,2.3612,2.3614,2.3603,2.36,2.3588,2.3588,2.3581,2.3564,2.3556,2.3538,2.3542,2.3568,2.3523,2.3522,2.353,2.3583,2.3595,2.36,2.3555,2.3555,2.3556,2.3584,0,2.3711,2.3713,2.3689,2.3697,2.3693,2.3663,2.3664,2.365,2.3635,2.3629,2.3612,2.3607,2.3586,2.3581,2.3583,2.3564,2.3578,2.3562,2.3553,2.3553,2.3556,2.3605,2.3617,2.3645,2.3587,2.3588,2.3588,0,2.3752,2.3741,2.3749,2.3724,2.3722,2.3724,2.371,2.3707,2.369,2.3678,2.3668,2.3647,2.3646,2.3625,2.3623,2.3613,2.3607,2.3598,2.3598,2.3595,2.3571,2.36,2.3653,2.3657,2.3594,2.3593,2.3593,0,2.3798,2.3786,2.3788,2.3781,2.3753,2.3755,2.3743,2.3725,2.3719,2.3708,2.3703,2.3692,2.3685,2.3677,2.3652,2.364,2.3652,2.3629,2.3641,2.3641,2.3643,2.3643,2.3694,2.3644,2.3644,2.3644,2.3644,0,2.3838,2.3843,2.3808,2.3809,2.3813,2.3786,2.3791,2.3776,2.376,2.3757,2.3731,2.3728,2.3698,2.3692,2.3673,2.3672,2.367,2.366,2.3654,2.3661,2.3662,2.3655,2.3652,2.3645,2.3644,2.3644,2.3644,0,2.3889,2.3866,2.3866,2.3839,2.3833,2.3837,2.3814,2.3813,2.3796,2.3793,2.379,2.3763,2.3754,2.373,2.3715,2.3702,2.3706,2.3698,2.3712,2.3708,2.372,2.3718,2.3767,2.3771,2.372,2.3721,2.3721,0,2.3915,2.3918,2.3892,2.3888,2.3877,2.3872,2.3865,2.3838,2.3832,2.3812,2.3814,2.3803,2.3793,2.378,2.3759,2.3747,2.3736,2.3754,2.3734,2.374,2.3734,2.3733,2.3732,2.3758,2.3759,2.3759,2.376,0,2.3963,2.3951,2.3943,2.393,2.3923,2.3912,2.3899,2.3898,2.3867,2.3862,2.3852,2.3845,2.3829,2.3818,2.3802,2.379,2.3769,2.3766,2.3768,2.3773,2.3781,2.3775,2.3721,2.3765,2.3764,2.3764,2.3764,2.3763,2.4,2.4001,2.3982,2.3973,2.3961,2.3949,2.3947,2.3929,2.3921,2.3906,2.3891,2.3883,2.3864,2.3841,2.383,2.3822,2.3812,2.3815,2.3815,2.3815,2.3818,2.3784,2.382,2.382,2.3819,2.3819,2.3819,0,2.4045,2.4031,2.4024,2.4006,2.3999,2.3981,2.3966,2.396,2.3954,2.3938,2.3929,2.3917,2.3906,2.3883,2.387,2.3868,2.3858,2.3865,2.3864,2.3861,2.3829,2.3828,2.3873,2.3873,2.3873,2.3873,2.3873,2.3873,2.4067,2.4066,2.4052,2.4044,2.4031,2.4022,2.4015,2.4004,2.3991,2.3979,2.397,2.3955,2.3936,2.3921,2.391,2.3903,2.3898,2.3908,2.3898,2.3869,2.3864,2.3859,2.3857,2.3908,2.3908,2.393,2.3931,2.3931]}]]